#timestamp,LO_Frequency,Hit,StdDev 
1634641215.7,286046998.7,P
1634641235.6,286046999.2,N
1634641255.4,286046999.1,N
1634641275.2,286046996.9,Y
1634641295.1,286046998.8,P
1634641296.0,286046998.8,P
1634641345.8,286046997.0,E
1634641355.7,286046998.7,N
1634641375.6,286047001.2,P
1634641395.4,286046999.5,N
1634641415.2,286046999.1,N
1634641435.1,286046996.5,Y
1634641436.0,286046996.5,P
1634641455.8,286046998.5,N
1634641475.6,286046995.3,P
1634641495.5,286046995.4,N
1634641515.3,286046995.2,N
1634641535.1,286046995.2,N
1634641555.9,286046994.3,Y
1634641575.7,286046995.1,P
1634641595.5,286046995.7,P
1634641615.4,286046995.4,P
1634641635.2,286046997.5,Y
1634641655.0,286047001.0,P
1634641655.9,286047001.0,N
1634641675.8,286046998.5,N
1634641695.6,286046998.2,N
1634641715.4,286046998.1,N
1634641735.3,286046998.3,N
1634641755.1,286046999.4,N
1634641775.8,286046997.4,N
1634641795.7,286046995.4,N
1634641815.5,286046999.3,N
1634641835.3,286046996.8,N
1634641855.2,286046996.7,N
1634641875.0,286046996.6,N
1634641875.9,286046996.6,N
1634641895.7,286046999.5,N
1634641915.6,286046998.8,N
1634641935.4,286046998.9,N
1634641955.2,286046999.3,N
1634641975.1,286046999.2,N
1634641976.0,286046999.2,N
1634641995.8,286046996.7,N
1634642015.6,286046997.8,N
1634642035.5,286046995.2,Y
1634642055.3,286046999.4,P
1634642075.1,286046996.7,P
1634642095.9,286046996.5,P
1634642115.7,286046996.5,N
1634642135.5,286046999.6,N
1634642155.4,286046997.7,N
1634642175.2,286046997.8,N
1634642195.0,286046997.9,N
1634642195.9,286046997.9,N
1634642215.8,286046995.8,Y
1634642235.6,286046996.8,P
1634642255.4,286046997.4,P
1634642275.3,286046997.4,P
1634642295.1,286046995.7,Y
1634642315.9,286046996.7,P
1634642335.7,286046997.2,P
1634642355.5,286046999.6,N
1634642375.4,286046997.4,N
1634642395.2,286046994.9,Y
1634642415.0,286046999.4,P
1634642415.9,286046999.4,N
1634642435.8,286046999.6,N
1634642455.6,286046999.3,N
1634642475.4,286046999.1,N
1634642495.3,286046996.8,Y
1634642515.1,286046998.8,P
1634642535.8,286046996.6,P
1634642555.7,286046997.3,N
1634642575.5,286046997.3,N
1634642595.3,286046996.2,Y
1634642615.2,286046996.8,P
1634642635.0,286046997.2,P
1634642635.9,286046997.2,P
1634642655.7,286046996.7,Y
1634642675.6,286046999.9,P
1634642695.4,286047002.2,N
1634642715.2,286047001.3,N
1634642735.1,286047001.9,N
1634642736.0,286047001.9,N
1634642755.8,286047001.9,N
1634642775.6,286046999.9,N
1634642795.5,286047000.6,N
1634642815.3,286046999.8,N
1634642835.1,286047000.5,N
1634642855.9,286047000.0,N
1634642875.7,286047002.6,N
1634642895.5,286047001.2,N
1634642915.4,286047001.0,N
1634642935.2,286046998.6,N
1634642955.0,286046998.4,N
1634642955.9,286046998.4,N
1634642975.8,286046998.5,N
1634642995.6,286046998.8,N
1634643015.4,286046999.6,N
1634643035.3,286047001.2,N
1634643055.1,286046998.2,N
1634643075.8,286046998.9,N
1634643095.7,286046999.3,N
1634643115.5,286046996.5,N
1634643135.3,286046996.7,N
1634643155.2,286046994.9,Y
1634643175.0,286046996.9,P
1634643175.9,286046996.9,N
1634643195.8,286046999.1,N
1634643215.6,286046998.9,N
1634643235.4,286046996.6,N
1634643255.3,286046999.2,N
1634643275.1,286046999.2,N
1634643276.0,286046999.2,N
1634643295.8,286046996.6,N
1634643315.7,286046997.9,N
1634643335.5,286046997.1,N
1634643355.3,286046999.6,N
1634643375.2,286046998.7,N
1634643395.9,286046998.7,N
1634643415.7,286046996.8,N
1634643435.6,286046999.0,N
1634643455.4,286046999.5,N
1634643475.2,286046997.7,N
1634643495.1,286046997.3,N
1634643496.0,286046997.3,N
1634643515.8,286046997.9,N
1634643535.6,286046997.9,N
1634643555.5,286046997.7,N
1634643575.3,286046999.3,N
1634643595.1,286046999.4,N
1634643615.9,286046997.3,N
1634643635.7,286046999.5,N
1634643655.5,286046999.2,N
1634643675.4,286046999.5,N
1634643695.2,286047000.4,N
1634643715.0,286047000.9,N
1634643715.9,286047000.9,N
1634643735.8,286047000.2,N
1634643755.6,286047002.6,N
1634643775.4,286047001.8,N
1634643795.3,286047003.5,N
1634643815.1,286047001.7,N
1634643816.0,286047001.7,N
1634643835.8,286047004.4,N
1634643855.7,286047001.6,N
1634643875.5,286047001.5,N
1634643895.3,286047001.7,N
1634643915.2,286047001.4,N
1634643935.9,286047002.0,N
1634643955.7,286047001.8,N
1634643975.6,286047001.8,N
1634643995.4,286047003.3,N
1634644015.2,286047004.9,N
1634644035.1,286047003.3,N
1634644036.0,286047003.3,N
1634644055.8,286047004.8,N
1634644075.6,286047005.5,N
1634644095.5,286047005.2,N
1634644115.3,286047006.6,Y
1634644135.1,286047004.8,P
1634644155.9,286047005.7,P
1634644175.7,286047007.2,P
1634644195.5,286047006.3,Y
1634644215.4,286047001.6,P
1634644235.2,286047004.3,N
1634644255.0,286047001.3,N
1634644255.9,286047001.3,N
1634644275.8,286047002.1,N
1634644295.6,286047000.1,N
1634644315.4,286047002.0,N
1634644335.3,286047004.0,N
1634644355.1,286047001.5,N
1634644356.0,286047001.5,N
1634644375.8,286047004.4,Y
1634644395.7,286047000.2,P
1634644415.5,286047000.5,N
1634644435.3,286047000.1,N
1634644455.2,286047002.5,N
1634644475.9,286047002.7,N
1634644495.7,286047001.2,N
1634644515.6,286046998.7,N
1634644535.4,286047000.8,N
1634644555.2,286047000.8,N
1634644575.1,286046999.8,N
1634644576.0,286046999.8,N
1634644595.8,286046998.5,N
1634644615.6,286047000.6,N
1634644635.5,286047001.7,N
1634644655.3,286047004.2,Y
1634644675.1,286047001.3,P
1634644695.9,286047004.4,P
1634644715.7,286047003.7,N
1634644735.5,286047003.7,N
1634644755.4,286047003.1,N
1634644775.2,286047003.6,N
1634644795.0,286047004.2,Y
1634644795.9,286047004.2,P
